TimeCST,TemperatureF,Dew PointF,Humidity,Sea Level PressureIn,VisibilityMPH,Wind Direction,Wind SpeedMPH,Gust SpeedMPH,PrecipitationIn,Events,Conditions,WindDirDegrees,DateUTC
12:53 AM,33.1,28.9,85,30.19,10.0,WNW,6.9,-,N/A,,Clear,290,2012-11-23 06:53:00
1:53 AM,35.1,30.0,82,30.19,10.0,NNW,12.7,-,N/A,,Partly Cloudy,330,2012-11-23 07:53:00
2:53 AM,37.0,25.0,62,30.22,10.0,NNW,15.0,27.6,N/A,,Overcast,330,2012-11-23 08:53:00
3:53 AM,36.0,23.0,59,30.24,10.0,NW,20.7,31.1,N/A,,Overcast,320,2012-11-23 09:53:00
4:53 AM,32.0,19.0,59,30.29,10.0,NW,20.7,33.4,N/A,,Overcast,320,2012-11-23 10:53:00
6:29 AM,26.6,15.8,64,30.32,10.0,NW,23.0,32.2,N/A,,Mostly Cloudy,310,2012-11-23 12:29:00
6:37 AM,26.6,15.8,64,30.32,10.0,NW,26.5,32.2,N/A,,Mostly Cloudy,310,2012-11-23 12:37:00
6:53 AM,27.0,16.0,63,30.36,10.0,NW,20.7,28.8,N/A,,Overcast,310,2012-11-23 12:53:00
7:53 AM,26.1,15.1,63,30.38,10.0,NW,20.7,29.9,N/A,,Clear,310,2012-11-23 13:53:00
8:53 AM,27.0,14.0,58,30.40,10.0,NW,27.6,33.4,N/A,,Clear,320,2012-11-23 14:53:00
9:53 AM,28.0,14.0,56,30.43,10.0,WNW,24.2,29.9,N/A,,Clear,300,2012-11-23 15:53:00
10:53 AM,28.9,14.0,54,30.44,10.0,NW,23.0,31.1,N/A,,Clear,310,2012-11-23 16:53:00
11:53 AM,30.9,14.0,50,30.43,10.0,NW,17.3,27.6,N/A,,Clear,310,2012-11-23 17:53:00
12:53 PM,32.0,15.1,50,30.43,10.0,NW,21.9,28.8,N/A,,Clear,320,2012-11-23 18:53:00
1:53 PM,32.0,15.1,50,30.42,10.0,WNW,19.6,29.9,N/A,,Clear,300,2012-11-23 19:53:00
2:53 PM,32.0,15.1,50,30.42,10.0,NW,20.7,26.5,N/A,,Clear,320,2012-11-23 20:53:00
3:53 PM,30.9,14.0,50,30.43,10.0,NW,18.4,25.3,N/A,,Clear,310,2012-11-23 21:53:00
4:53 PM,28.0,14.0,56,30.44,10.0,NW,15.0,-,N/A,,Clear,310,2012-11-23 22:53:00
5:53 PM,26.1,14.0,60,30.45,10.0,NW,11.5,-,N/A,,Clear,320,2012-11-23 23:53:00
6:53 PM,23.0,14.0,68,30.45,10.0,WNW,8.1,-,N/A,,Clear,300,2012-11-24 00:53:00
7:53 PM,21.9,12.9,68,30.45,10.0,NW,6.9,-,N/A,,Clear,310,2012-11-24 01:53:00
8:53 PM,19.9,12.0,71,30.44,10.0,NW,5.8,-,N/A,,Clear,320,2012-11-24 02:53:00
9:53 PM,19.0,12.0,74,30.44,10.0,WNW,9.2,-,N/A,,Clear,300,2012-11-24 03:53:00
10:53 PM,19.0,12.0,74,30.43,10.0,NW,8.1,-,N/A,,Clear,310,2012-11-24 04:53:00